Wetterdaten: Mittwoch, 07.10.2015
Datum Zeit Temperatur Luftfeuchte Luftdruck Regen Wind Richtung Richtung Sonnenschein ET UV Solar Taupunkt Windchill Windben
07.10.2015 00:00 14,7 C 77 % 1006,4 hPa 0,0 l/m 0,0 km/h (0 Bft) W-SW 257 0 min 0,000 mm 0,0 UV-I 0 W/m 10,7 C 14,7 C 0,0 km/h (0 Bft)
07.10.2015 00:05 14,7 C 77 % 1006,4 hPa 0,0 l/m 0,5 km/h (0 Bft) SW 225 0 min 0,000 mm 0,0 UV-I 0 W/m 10,7 C 14,7 C 4,8 km/h (1 Bft)
07.10.2015 00:10 14,7 C 77 % 1006,4 hPa 0,0 l/m 0,0 km/h (0 Bft) S 180 0 min 0,000 mm 0,0 UV-I 0 W/m 10,7 C 14,7 C 1,6 km/h (1 Bft)
07.10.2015 00:15 14,5 C 77 % 1006,5 hPa 0,0 l/m 0,0 km/h (0 Bft) S 180 0 min 0,000 mm 0,0 UV-I 0 W/m 10,5 C 14,5 C 0,0 km/h (0 Bft)
07.10.2015 00:20 14,4 C 77 % 1006,4 hPa 0,0 l/m 0,0 km/h (0 Bft) S 180 0 min 0,000 mm 0,0 UV-I 0 W/m 10,4 C 14,4 C 0,0 km/h (0 Bft)
07.10.2015 00:25 14,3 C 77 % 1006,5 hPa 0,0 l/m 0,0 km/h (0 Bft) S 180 0 min 0,000 mm 0,0 UV-I 0 W/m 10,3 C 14,3 C 0,0 km/h (0 Bft)
07.10.2015 00:30 14,3 C 77 % 1006,4 hPa 0,0 l/m 0,0 km/h (0 Bft) W-NW 302 0 min 0,000 mm 0,0 UV-I 0 W/m 10,3 C 14,3 C 0,0 km/h (0 Bft)
07.10.2015 00:35 14,3 C 77 % 1006,4 hPa 0,0 l/m 0,1 km/h (0 Bft) SO 139 0 min 0,000 mm 0,0 UV-I 0 W/m 10,3 C 14,3 C 1,6 km/h (1 Bft)
07.10.2015 00:40 14,3 C 77 % 1006,5 hPa 0,0 l/m 0,0 km/h (0 Bft) SO 139 0 min 0,000 mm 0,0 UV-I 0 W/m 10,3 C 14,3 C 0,0 km/h (0 Bft)
07.10.2015 00:45 14,3 C 78 % 1006,4 hPa 0,0 l/m 0,0 km/h (0 Bft) SO 139 0 min 0,000 mm 0,0 UV-I 0 W/m 10,5 C 14,3 C 0,0 km/h (0 Bft)
07.10.2015 00:50 14,3 C 78 % 1006,5 hPa 0,0 l/m 0,0 km/h (0 Bft) SO 139 0 min 0,000 mm 0,0 UV-I 0 W/m 10,5 C 14,3 C 0,0 km/h (0 Bft)
07.10.2015 00:55 14,1 C 77 % 1006,5 hPa 0,0 l/m 0,0 km/h (0 Bft) SO 139 0 min 0,000 mm 0,0 UV-I 0 W/m 10,1 C 14,1 C 0,0 km/h (0 Bft)
07.10.2015 01:00 13,8 C 77 % 1006,4 hPa 0,0 l/m 0,0 km/h (0 Bft) SO 139 0 min 0,000 mm 0,0 UV-I 0 W/m 9,8 C 13,8 C 0,0 km/h (0 Bft)
07.10.2015 01:05 13,8 C 78 % 1006,4 hPa 0,0 l/m 0,0 km/h (0 Bft) SO 139 0 min 0,025 mm 0,0 UV-I 0 W/m 10,0 C 13,8 C 0,0 km/h (0 Bft)
07.10.2015 01:10 13,7 C 78 % 1006,4 hPa 0,0 l/m 0,0 km/h (0 Bft) SO 139 0 min 0,000 mm 0,0 UV-I 0 W/m 9,9 C 13,7 C 0,0 km/h (0 Bft)
07.10.2015 01:15 13,7 C 78 % 1006,4 hPa 0,0 l/m 0,0 km/h (0 Bft) SO 139 0 min 0,000 mm 0,0 UV-I 0 W/m 9,9 C 13,7 C 0,0 km/h (0 Bft)
07.10.2015 01:20 13,7 C 78 % 1006,4 hPa 0,0 l/m 0,0 km/h (0 Bft) SO 139 0 min 0,000 mm 0,0 UV-I 0 W/m 9,9 C 13,7 C 0,0 km/h (0 Bft)
07.10.2015 01:25 13,6 C 78 % 1006,5 hPa 0,0 l/m 0,0 km/h (0 Bft) SO 139 0 min 0,000 mm 0,0 UV-I 0 W/m 9,8 C 13,6 C 0,0 km/h (0 Bft)
07.10.2015 01:30 13,6 C 78 % 1006,5 hPa 0,0 l/m 0,0 km/h (0 Bft) O 99 0 min 0,000 mm 0,0 UV-I 0 W/m 9,8 C 13,6 C 1,6 km/h (1 Bft)
07.10.2015 01:35 13,7 C 78 % 1006,6 hPa 0,0 l/m 0,0 km/h (0 Bft) O 82 0 min 0,000 mm 0,0 UV-I 0 W/m 9,9 C 13,7 C 1,6 km/h (1 Bft)
07.10.2015 01:40 13,7 C 78 % 1006,6 hPa 0,0 l/m 0,0 km/h (0 Bft) O 82 0 min 0,000 mm 0,0 UV-I 0 W/m 9,9 C 13,7 C 0,0 km/h (0 Bft)
07.10.2015 01:45 13,7 C 78 % 1006,7 hPa 0,0 l/m 0,0 km/h (0 Bft) O 80 0 min 0,000 mm 0,0 UV-I 0 W/m 9,9 C 13,7 C 0,0 km/h (0 Bft)
07.10.2015 01:50 13,8 C 78 % 1006,6 hPa 0,0 l/m 0,0 km/h (0 Bft) O 80 0 min 0,000 mm 0,0 UV-I 0 W/m 10,0 C 13,8 C 0,0 km/h (0 Bft)
07.10.2015 01:55 13,8 C 79 % 1006,7 hPa 0,0 l/m 0,0 km/h (0 Bft) O 80 0 min 0,000 mm 0,0 UV-I 0 W/m 10,2 C 13,8 C 0,0 km/h (0 Bft)
07.10.2015 02:00 13,9 C 79 % 1006,8 hPa 0,0 l/m 0,0 km/h (0 Bft) O 80 0 min 0,000 mm 0,0 UV-I 0 W/m 10,3 C 13,9 C 0,0 km/h (0 Bft)
07.10.2015 02:05 13,9 C 79 % 1006,7 hPa 0,0 l/m 0,4 km/h (0 Bft) NO 45 0 min 0,026 mm 0,0 UV-I 0 W/m 10,3 C 13,9 C 4,8 km/h (1 Bft)
07.10.2015 02:10 14,0 C 79 % 1006,7 hPa 0,0 l/m 0,0 km/h (0 Bft) NO 45 0 min 0,000 mm 0,0 UV-I 0 W/m 10,4 C 14,0 C 0,0 km/h (0 Bft)
07.10.2015 02:15 14,1 C 79 % 1006,8 hPa 0,0 l/m 0,0 km/h (0 Bft) NO 45 0 min 0,000 mm 0,0 UV-I 0 W/m 10,5 C 14,1 C 0,0 km/h (0 Bft)
07.10.2015 02:20 14,0 C 79 % 1006,8 hPa 0,0 l/m 0,0 km/h (0 Bft) NO 45 0 min 0,000 mm 0,0 UV-I 0 W/m 10,4 C 14,0 C 0,0 km/h (0 Bft)
07.10.2015 02:25 14,1 C 79 % 1006,7 hPa 0,0 l/m 0,0 km/h (0 Bft) NO 45 0 min 0,000 mm 0,0 UV-I 0 W/m 10,5 C 14,1 C 0,0 km/h (0 Bft)
07.10.2015 02:30 14,1 C 79 % 1006,8 hPa 0,0 l/m 0,0 km/h (0 Bft) NO 45 0 min 0,000 mm 0,0 UV-I 0 W/m 10,5 C 14,1 C 0,0 km/h (0 Bft)
07.10.2015 02:35 14,1 C 79 % 1006,9 hPa 0,0 l/m 0,0 km/h (0 Bft) NO 45 0 min 0,000 mm 0,0 UV-I 0 W/m 10,5 C 14,1 C 0,0 km/h (0 Bft)
07.10.2015 02:40 14,1 C 79 % 1006,9 hPa 0,0 l/m 0,0 km/h (0 Bft) NO 45 0 min 0,000 mm 0,0 UV-I 0 W/m 10,5 C 14,1 C 0,0 km/h (0 Bft)
07.10.2015 02:45 14,1 C 79 % 1006,9 hPa 0,0 l/m 0,0 km/h (0 Bft) NO 45 0 min 0,000 mm 0,0 UV-I 0 W/m 10,5 C 14,1 C 0,0 km/h (0 Bft)
07.10.2015 02:50 14,1 C 79 % 1007,0 hPa 0,0 l/m 0,0 km/h (0 Bft) NO 45 0 min 0,000 mm 0,0 UV-I 0 W/m 10,5 C 14,1 C 0,0 km/h (0 Bft)
07.10.2015 02:55 14,0 C 79 % 1007,0 hPa 0,0 l/m 0,0 km/h (0 Bft) NO 45 0 min 0,000 mm 0,0 UV-I 0 W/m 10,4 C 14,0 C 0,0 km/h (0 Bft)
07.10.2015 03:00 14,0 C 79 % 1007,0 hPa 0,0 l/m 0,0 km/h (0 Bft) NO 45 0 min 0,000 mm 0,0 UV-I 0 W/m 10,4 C 14,0 C 0,0 km/h (0 Bft)
07.10.2015 03:05 14,1 C 79 % 1007,0 hPa 0,0 l/m 0,0 km/h (0 Bft) NO 45 0 min 0,025 mm 0,0 UV-I 0 W/m 10,5 C 14,1 C 0,0 km/h (0 Bft)
07.10.2015 03:10 14,1 C 79 % 1007,0 hPa 0,0 l/m 0,0 km/h (0 Bft) NO 45 0 min 0,000 mm 0,0 UV-I 0 W/m 10,5 C 14,1 C 0,0 km/h (0 Bft)
07.10.2015 03:15 14,1 C 79 % 1007,0 hPa 0,0 l/m 0,0 km/h (0 Bft) NO 45 0 min 0,000 mm 0,0 UV-I 0 W/m 10,5 C 14,1 C 0,0 km/h (0 Bft)
07.10.2015 03:20 13,9 C 79 % 1007,0 hPa 0,0 l/m 0,0 km/h (0 Bft) NO 54 0 min 0,000 mm 0,0 UV-I 0 W/m 10,3 C 13,9 C 1,6 km/h (1 Bft)
07.10.2015 03:25 13,8 C 79 % 1007,0 hPa 0,0 l/m 0,0 km/h (0 Bft) NO 54 0 min 0,000 mm 0,0 UV-I 0 W/m 10,2 C 13,8 C 0,0 km/h (0 Bft)
07.10.2015 03:30 13,8 C 79 % 1007,1 hPa 0,0 l/m 0,0 km/h (0 Bft) NO 54 0 min 0,000 mm 0,0 UV-I 0 W/m 10,2 C 13,8 C 0,0 km/h (0 Bft)
07.10.2015 03:35 13,8 C 79 % 1007,1 hPa 0,0 l/m 0,0 km/h (0 Bft) NO 54 0 min 0,000 mm 0,0 UV-I 0 W/m 10,2 C 13,8 C 0,0 km/h (0 Bft)
07.10.2015 03:40 13,8 C 79 % 1007,1 hPa 0,0 l/m 0,0 km/h (0 Bft) NO 54 0 min 0,000 mm 0,0 UV-I 0 W/m 10,2 C 13,8 C 0,0 km/h (0 Bft)
07.10.2015 03:45 13,8 C 79 % 1007,1 hPa 0,0 l/m 0,0 km/h (0 Bft) NO 54 0 min 0,000 mm 0,0 UV-I 0 W/m 10,2 C 13,8 C 0,0 km/h (0 Bft)
07.10.2015 03:50 13,8 C 79 % 1007,1 hPa 0,0 l/m 0,0 km/h (0 Bft) NO 54 0 min 0,000 mm 0,0 UV-I 0 W/m 10,2 C 13,8 C 0,0 km/h (0 Bft)
07.10.2015 03:55 13,8 C 79 % 1007,1 hPa 0,0 l/m 0,0 km/h (0 Bft) NO 54 0 min 0,000 mm 0,0 UV-I 0 W/m 10,2 C 13,8 C 0,0 km/h (0 Bft)
07.10.2015 04:00 13,8 C 79 % 1007,1 hPa 0,0 l/m 0,0 km/h (0 Bft) NO 54 0 min 0,000 mm 0,0 UV-I 0 W/m 10,2 C 13,8 C 0,0 km/h (0 Bft)
07.10.2015 04:05 13,8 C 79 % 1007,1 hPa 0,0 l/m 0,0 km/h (0 Bft) NO 54 0 min 0,000 mm 0,0 UV-I 0 W/m 10,2 C 13,8 C 0,0 km/h (0 Bft)
07.10.2015 04:10 13,8 C 79 % 1007,1 hPa 0,0 l/m 0,0 km/h (0 Bft) NO 54 0 min 0,000 mm 0,0 UV-I 0 W/m 10,2 C 13,8 C 0,0 km/h (0 Bft)
07.10.2015 04:15 13,8 C 79 % 1007,1 hPa 0,0 l/m 0,0 km/h (0 Bft) NO 54 0 min 0,000 mm 0,0 UV-I 0 W/m 10,2 C 13,8 C 0,0 km/h (0 Bft)
07.10.2015 04:20 13,8 C 79 % 1007,2 hPa 0,0 l/m 0,0 km/h (0 Bft) NO 54 0 min 0,000 mm 0,0 UV-I 0 W/m 10,2 C 13,8 C 0,0 km/h (0 Bft)
07.10.2015 04:25 13,8 C 79 % 1007,2 hPa 0,0 l/m 0,0 km/h (0 Bft) NO 54 0 min 0,000 mm 0,0 UV-I 0 W/m 10,2 C 13,8 C 0,0 km/h (0 Bft)
07.10.2015 04:30 13,8 C 79 % 1007,2 hPa 0,0 l/m 0,0 km/h (0 Bft) NO 54 0 min 0,000 mm 0,0 UV-I 0 W/m 10,2 C 13,8 C 0,0 km/h (0 Bft)
07.10.2015 04:35 13,8 C 79 % 1007,3 hPa 0,0 l/m 0,0 km/h (0 Bft) NO 54 0 min 0,000 mm 0,0 UV-I 0 W/m 10,2 C 13,8 C 0,0 km/h (0 Bft)
07.10.2015 04:40 13,8 C 79 % 1007,3 hPa 0,0 l/m 0,0 km/h (0 Bft) NO 54 0 min 0,000 mm 0,0 UV-I 0 W/m 10,2 C 13,8 C 0,0 km/h (0 Bft)
07.10.2015 04:45 13,8 C 79 % 1007,3 hPa 0,0 l/m 0,0 km/h (0 Bft) NO 54 0 min 0,000 mm 0,0 UV-I 0 W/m 10,2 C 13,8 C 0,0 km/h (0 Bft)
07.10.2015 04:50 13,8 C 79 % 1007,3 hPa 0,0 l/m 0,0 km/h (0 Bft) NO 54 0 min 0,000 mm 0,0 UV-I 0 W/m 10,2 C 13,8 C 0,0 km/h (0 Bft)
07.10.2015 04:55 13,8 C 79 % 1007,3 hPa 0,0 l/m 0,0 km/h (0 Bft) NO 54 0 min 0,000 mm 0,0 UV-I 0 W/m 10,2 C 13,8 C 0,0 km/h (0 Bft)
07.10.2015 05:00 13,8 C 79 % 1007,3 hPa 0,0 l/m 0,0 km/h (0 Bft) NO 54 0 min 0,026 mm 0,0 UV-I 0 W/m 10,2 C 13,8 C 0,0 km/h (0 Bft)
07.10.2015 05:05 13,8 C 79 % 1007,4 hPa 0,0 l/m 0,0 km/h (0 Bft) NO 54 0 min 0,000 mm 0,0 UV-I 0 W/m 10,2 C 13,8 C 0,0 km/h (0 Bft)
07.10.2015 05:10 13,8 C 79 % 1007,4 hPa 0,0 l/m 0,0 km/h (0 Bft) NO 54 0 min 0,000 mm 0,0 UV-I 0 W/m 10,2 C 13,8 C 0,0 km/h (0 Bft)
07.10.2015 05:15 13,8 C 79 % 1007,5 hPa 0,0 l/m 0,0 km/h (0 Bft) NO 54 0 min 0,000 mm 0,0 UV-I 0 W/m 10,2 C 13,8 C 0,0 km/h (0 Bft)
07.10.2015 05:20 13,8 C 79 % 1007,5 hPa 0,0 l/m 0,0 km/h (0 Bft) NO 54 0 min 0,000 mm 0,0 UV-I 0 W/m 10,2 C 13,8 C 0,0 km/h (0 Bft)
07.10.2015 05:25 13,8 C 79 % 1007,4 hPa 0,0 l/m 0,0 km/h (0 Bft) NO 54 0 min 0,000 mm 0,0 UV-I 0 W/m 10,2 C 13,8 C 0,0 km/h (0 Bft)
07.10.2015 05:30 13,8 C 79 % 1007,5 hPa 0,0 l/m 0,0 km/h (0 Bft) NO 54 0 min 0,000 mm 0,0 UV-I 0 W/m 10,2 C 13,8 C 0,0 km/h (0 Bft)
07.10.2015 05:35 13,8 C 79 % 1007,4 hPa 0,0 l/m 0,0 km/h (0 Bft) NO 54 0 min 0,000 mm 0,0 UV-I 0 W/m 10,2 C 13,8 C 0,0 km/h (0 Bft)
07.10.2015 05:40 13,8 C 79 % 1007,5 hPa 0,0 l/m 0,0 km/h (0 Bft) NO 54 0 min 0,000 mm 0,0 UV-I 0 W/m 10,2 C 13,8 C 0,0 km/h (0 Bft)
07.10.2015 05:45 13,7 C 79 % 1007,5 hPa 0,0 l/m 0,0 km/h (0 Bft) NO 54 0 min 0,000 mm 0,0 UV-I 0 W/m 10,1 C 13,7 C 0,0 km/h (0 Bft)
07.10.2015 05:50 13,7 C 79 % 1007,5 hPa 0,0 l/m 0,0 km/h (0 Bft) NO 54 0 min 0,000 mm 0,0 UV-I 0 W/m 10,1 C 13,7 C 0,0 km/h (0 Bft)
07.10.2015 05:55 13,7 C 79 % 1007,6 hPa 0,0 l/m 0,0 km/h (0 Bft) NO 54 0 min 0,000 mm 0,0 UV-I 0 W/m 10,1 C 13,7 C 0,0 km/h (0 Bft)
07.10.2015 06:00 13,7 C 79 % 1007,6 hPa 0,0 l/m 0,0 km/h (0 Bft) NO 54 0 min 0,025 mm 0,0 UV-I 0 W/m 10,1 C 13,7 C 0,0 km/h (0 Bft)
07.10.2015 06:05 13,8 C 79 % 1007,7 hPa 0,0 l/m 0,0 km/h (0 Bft) NO 54 0 min 0,000 mm 0,0 UV-I 0 W/m 10,2 C 13,8 C 0,0 km/h (0 Bft)
07.10.2015 06:10 13,8 C 79 % 1007,8 hPa 0,0 l/m 0,0 km/h (0 Bft) NO 54 0 min 0,000 mm 0,0 UV-I 0 W/m 10,2 C 13,8 C 0,0 km/h (0 Bft)
07.10.2015 06:15 13,8 C 79 % 1007,8 hPa 0,0 l/m 0,0 km/h (0 Bft) NO 54 0 min 0,000 mm 0,0 UV-I 0 W/m 10,2 C 13,8 C 0,0 km/h (0 Bft)
07.10.2015 06:20 13,8 C 79 % 1007,9 hPa 0,0 l/m 0,0 km/h (0 Bft) NO 54 0 min 0,000 mm 0,0 UV-I 0 W/m 10,2 C 13,8 C 0,0 km/h (0 Bft)
07.10.2015 06:25 13,8 C 79 % 1007,9 hPa 0,0 l/m 0,0 km/h (0 Bft) NO 54 0 min 0,000 mm 0,0 UV-I 0 W/m 10,2 C 13,8 C 0,0 km/h (0 Bft)
07.10.2015 06:30 13,8 C 79 % 1007,9 hPa 0,0 l/m 0,0 km/h (0 Bft) NO 54 0 min 0,000 mm 0,0 UV-I 0 W/m 10,2 C 13,8 C 0,0 km/h (0 Bft)
07.10.2015 06:35 13,8 C 79 % 1007,9 hPa 0,0 l/m 0,0 km/h (0 Bft) NO 54 0 min 0,000 mm 0,0 UV-I 0 W/m 10,2 C 13,8 C 0,0 km/h (0 Bft)
07.10.2015 06:40 13,9 C 79 % 1007,9 hPa 0,0 l/m 0,0 km/h (0 Bft) NO 54 0 min 0,000 mm 0,0 UV-I 0 W/m 10,3 C 13,9 C 0,0 km/h (0 Bft)
07.10.2015 06:45 13,9 C 79 % 1007,9 hPa 0,0 l/m 0,0 km/h (0 Bft) NO 54 0 min 0,000 mm 0,0 UV-I 0 W/m 10,3 C 13,9 C 0,0 km/h (0 Bft)
07.10.2015 06:50 13,9 C 79 % 1007,9 hPa 0,0 l/m 0,0 km/h (0 Bft) NO 54 0 min 0,000 mm 0,0 UV-I 0 W/m 10,3 C 13,9 C 0,0 km/h (0 Bft)
07.10.2015 06:55 13,8 C 79 % 1008,0 hPa 0,0 l/m 0,0 km/h (0 Bft) NO 54 0 min 0,000 mm 0,0 UV-I 0 W/m 10,2 C 13,8 C 0,0 km/h (0 Bft)
07.10.2015 07:00 13,8 C 79 % 1008,0 hPa 0,0 l/m 0,0 km/h (0 Bft) NO 54 0 min 0,025 mm 0,0 UV-I 0 W/m 10,2 C 13,8 C 0,0 km/h (0 Bft)
07.10.2015 07:05 13,9 C 79 % 1008,0 hPa 0,0 l/m 0,0 km/h (0 Bft) NO 54 0 min 0,000 mm 0,0 UV-I 0 W/m 10,3 C 13,9 C 0,0 km/h (0 Bft)
07.10.2015 07:10 13,9 C 79 % 1008,1 hPa 0,0 l/m 0,0 km/h (0 Bft) NO 54 0 min 0,000 mm 0,0 UV-I 0 W/m 10,3 C 13,9 C 0,0 km/h (0 Bft)
07.10.2015 07:15 13,9 C 79 % 1008,1 hPa 0,0 l/m 0,0 km/h (0 Bft) NO 54 0 min 0,000 mm 0,0 UV-I 0 W/m 10,3 C 13,9 C 0,0 km/h (0 Bft)
07.10.2015 07:20 13,9 C 79 % 1008,2 hPa 0,0 l/m 0,0 km/h (0 Bft) NO 54 0 min 0,000 mm 0,0 UV-I 0 W/m 10,3 C 13,9 C 0,0 km/h (0 Bft)
07.10.2015 07:25 13,9 C 79 % 1008,2 hPa 0,0 l/m 0,0 km/h (0 Bft) NO 54 0 min 0,000 mm 0,0 UV-I 0 W/m 10,3 C 13,9 C 0,0 km/h (0 Bft)
07.10.2015 07:30 14,0 C 79 % 1008,2 hPa 0,0 l/m 0,0 km/h (0 Bft) NO 54 0 min 0,000 mm 0,0 UV-I 0 W/m 10,4 C 14,0 C 0,0 km/h (0 Bft)
07.10.2015 07:35 14,0 C 79 % 1008,3 hPa 0,0 l/m 0,0 km/h (0 Bft) NO 54 0 min 0,000 mm 0,0 UV-I 0 W/m 10,4 C 14,0 C 0,0 km/h (0 Bft)
07.10.2015 07:40 14,0 C 79 % 1008,4 hPa 0,0 l/m 0,0 km/h (0 Bft) NO 54 0 min 0,000 mm 0,0 UV-I 0 W/m 10,4 C 14,0 C 0,0 km/h (0 Bft)
07.10.2015 07:45 14,0 C 79 % 1008,4 hPa 0,0 l/m 0,0 km/h (0 Bft) NO 54 0 min 0,000 mm 0,0 UV-I 0 W/m 10,4 C 14,0 C 0,0 km/h (0 Bft)
07.10.2015 07:50 14,0 C 79 % 1008,5 hPa 0,0 l/m 0,0 km/h (0 Bft) NO 54 0 min 0,000 mm 0,0 UV-I 0 W/m 10,4 C 14,0 C 0,0 km/h (0 Bft)
07.10.2015 07:55 14,1 C 79 % 1008,5 hPa 0,0 l/m 0,0 km/h (0 Bft) NO 55 0 min 0,000 mm 0,0 UV-I 2 W/m 10,5 C 14,1 C 0,0 km/h (0 Bft)
07.10.2015 08:00 14,0 C 79 % 1008,6 hPa 0,0 l/m 0,0 km/h (0 Bft) NO 55 0 min 0,000 mm 0,0 UV-I 7 W/m 10,4 C 14,0 C 0,0 km/h (0 Bft)
07.10.2015 08:05 14,1 C 79 % 1008,6 hPa 0,0 l/m 0,0 km/h (0 Bft) O-NO 67 0 min 0,000 mm 0,0 UV-I 11 W/m 10,5 C 14,1 C 0,0 km/h (0 Bft)
07.10.2015 08:10 14,1 C 79 % 1008,6 hPa 0,0 l/m 0,0 km/h (0 Bft) O-NO 67 0 min 0,000 mm 0,0 UV-I 13 W/m 10,5 C 14,1 C 0,0 km/h (0 Bft)
07.10.2015 08:15 14,2 C 79 % 1008,7 hPa 0,0 l/m 0,0 km/h (0 Bft) SW 224 0 min 0,000 mm 0,0 UV-I 14 W/m 10,6 C 14,2 C 0,0 km/h (0 Bft)
07.10.2015 08:20 14,2 C 79 % 1008,6 hPa 0,0 l/m 0,0 km/h (0 Bft) SW 224 0 min 0,000 mm 0,0 UV-I 17 W/m 10,6 C 14,2 C 0,0 km/h (0 Bft)
07.10.2015 08:25 14,3 C 79 % 1008,7 hPa 0,0 l/m 0,0 km/h (0 Bft) SW 224 0 min 0,000 mm 0,0 UV-I 18 W/m 10,7 C 14,3 C 0,0 km/h (0 Bft)
07.10.2015 08:30 14,3 C 79 % 1008,7 hPa 0,0 l/m 0,0 km/h (0 Bft) SW 224 0 min 0,000 mm 0,0 UV-I 18 W/m 10,7 C 14,3 C 0,0 km/h (0 Bft)
07.10.2015 08:35 14,3 C 79 % 1008,8 hPa 0,0 l/m 0,0 km/h (0 Bft) S-SW 209 0 min 0,000 mm 0,0 UV-I 21 W/m 10,7 C 14,3 C 0,0 km/h (0 Bft)
07.10.2015 08:40 14,4 C 79 % 1008,8 hPa 0,0 l/m 0,0 km/h (0 Bft) W-NW 284 0 min 0,000 mm 0,0 UV-I 32 W/m 10,8 C 14,4 C 0,0 km/h (0 Bft)
07.10.2015 08:45 14,4 C 79 % 1008,8 hPa 0,0 l/m 0,4 km/h (0 Bft) S 188 0 min 0,000 mm 0,0 UV-I 41 W/m 10,8 C 14,4 C 4,8 km/h (1 Bft)
07.10.2015 08:50 14,4 C 79 % 1008,9 hPa 0,0 l/m 1,0 km/h (0 Bft) S 175 0 min 0,000 mm 0,0 UV-I 41 W/m 10,8 C 14,4 C 4,8 km/h (1 Bft)
07.10.2015 08:55 14,5 C 79 % 1009,0 hPa 0,0 l/m 2,0 km/h (1 Bft) S-SW 212 0 min 0,000 mm 0,0 UV-I 34 W/m 10,9 C 14,5 C 6,4 km/h (2 Bft)
07.10.2015 09:00 14,6 C 78 % 1009,1 hPa 0,0 l/m 0,3 km/h (0 Bft) SW 215 0 min 0,026 mm 0,0 UV-I 28 W/m 10,8 C 14,6 C 3,2 km/h (1 Bft)
07.10.2015 09:05 14,7 C 78 % 1009,2 hPa 0,0 l/m 2,5 km/h (1 Bft) S-SW 195 0 min 0,000 mm 0,0 UV-I 28 W/m 10,9 C 14,7 C 8,0 km/h (2 Bft)
07.10.2015 09:10 14,7 C 78 % 1009,3 hPa 0,0 l/m 2,6 km/h (1 Bft) W 277 0 min 0,000 mm 0,0 UV-I 39 W/m 10,9 C 14,7 C 6,4 km/h (2 Bft)
07.10.2015 09:15 14,7 C 78 % 1009,2 hPa 0,0 l/m 2,4 km/h (1 Bft) SW 219 0 min 0,000 mm 0,0 UV-I 61 W/m 10,9 C 14,7 C 4,8 km/h (1 Bft)
07.10.2015 09:20 14,8 C 77 % 1009,2 hPa 0,0 l/m 2,6 km/h (1 Bft) S-SW 204 0 min 0,000 mm 0,0 UV-I 62 W/m 10,8 C 14,8 C 11,3 km/h (2 Bft)
07.10.2015 09:25 14,8 C 77 % 1009,3 hPa 0,0 l/m 3,3 km/h (1 Bft) S-SW 213 0 min 0,000 mm 0,0 UV-I 64 W/m 10,8 C 14,8 C 8,0 km/h (2 Bft)
07.10.2015 09:30 14,9 C 77 % 1009,4 hPa 0,0 l/m 0,4 km/h (0 Bft) S-SW 213 0 min 0,000 mm 0,0 UV-I 68 W/m 10,9 C 14,9 C 3,2 km/h (1 Bft)
07.10.2015 09:35 14,9 C 77 % 1009,5 hPa 0,0 l/m 0,5 km/h (0 Bft) W 261 0 min 0,000 mm 0,0 UV-I 57 W/m 10,9 C 14,9 C 3,2 km/h (1 Bft)
07.10.2015 09:40 15,0 C 77 % 1009,7 hPa 0,0 l/m 0,0 km/h (0 Bft) W 261 0 min 0,000 mm 0,0 UV-I 42 W/m 11,0 C 15,0 C 0,0 km/h (0 Bft)
07.10.2015 09:45 15,1 C 77 % 1009,7 hPa 0,0 l/m 0,0 km/h (0 Bft) W 261 0 min 0,000 mm 0,0 UV-I 46 W/m 11,1 C 15,1 C 0,0 km/h (0 Bft)
07.10.2015 09:50 15,1 C 76 % 1009,8 hPa 0,0 l/m 2,5 km/h (1 Bft) S-SW 200 0 min 0,000 mm 0,0 UV-I 53 W/m 10,9 C 15,1 C 6,4 km/h (2 Bft)
07.10.2015 09:55 15,1 C 76 % 1009,9 hPa 0,0 l/m 2,3 km/h (1 Bft) S 180 0 min 0,000 mm 0,0 UV-I 50 W/m 10,9 C 15,1 C 11,3 km/h (2 Bft)
07.10.2015 10:00 15,2 C 76 % 1009,9 hPa 0,0 l/m 3,3 km/h (1 Bft) S-SW 202 0 min 0,000 mm 0,0 UV-I 38 W/m 11,0 C 15,2 C 6,4 km/h (2 Bft)
07.10.2015 10:05 15,1 C 76 % 1010,0 hPa 0,0 l/m 3,1 km/h (1 Bft) S 187 0 min 0,025 mm 0,0 UV-I 36 W/m 10,9 C 15,1 C 6,4 km/h (2 Bft)
07.10.2015 10:10 15,1 C 76 % 1010,1 hPa 0,0 l/m 2,6 km/h (1 Bft) S 178 0 min 0,000 mm 0,0 UV-I 52 W/m 10,9 C 15,1 C 6,4 km/h (2 Bft)
07.10.2015 10:15 15,1 C 76 % 1010,1 hPa 0,0 l/m 4,6 km/h (1 Bft) S 188 0 min 0,000 mm 0,0 UV-I 63 W/m 10,9 C 15,1 C 9,7 km/h (2 Bft)
07.10.2015 10:20 15,2 C 76 % 1010,1 hPa 0,0 l/m 2,4 km/h (1 Bft) S-SO 164 0 min 0,000 mm 0,1 UV-I 82 W/m 11,0 C 15,2 C 6,4 km/h (2 Bft)
07.10.2015 10:25 15,2 C 76 % 1010,2 hPa 0,0 l/m 4,0 km/h (1 Bft) S 184 0 min 0,000 mm 0,6 UV-I 119 W/m 11,0 C 15,2 C 8,0 km/h (2 Bft)
07.10.2015 10:30 15,3 C 76 % 1010,2 hPa 0,0 l/m 4,8 km/h (1 Bft) S-SW 195 0 min 0,000 mm 0,6 UV-I 124 W/m 11,1 C 15,3 C 9,7 km/h (2 Bft)
07.10.2015 10:35 15,4 C 75 % 1010,2 hPa 0,0 l/m 4,7 km/h (1 Bft) S 175 0 min 0,000 mm 0,9 UV-I 223 W/m 11,0 C 15,4 C 9,7 km/h (2 Bft)
07.10.2015 10:40 15,7 C 75 % 1010,2 hPa 0,0 l/m 4,5 km/h (1 Bft) S-SW 203 5 min 0,000 mm 1,2 UV-I 333 W/m 11,3 C 15,7 C 11,3 km/h (2 Bft)
07.10.2015 10:45 15,8 C 75 % 1010,3 hPa 0,0 l/m 3,7 km/h (1 Bft) W-SW 237 0 min 0,000 mm 1,0 UV-I 208 W/m 11,4 C 15,8 C 9,7 km/h (2 Bft)
07.10.2015 10:50 15,9 C 75 % 1010,3 hPa 0,0 l/m 5,2 km/h (1 Bft) S 178 0 min 0,000 mm 0,7 UV-I 152 W/m 11,5 C 15,9 C 12,9 km/h (3 Bft)
07.10.2015 10:55 15,9 C 75 % 1010,3 hPa 0,0 l/m 4,3 km/h (1 Bft) W 266 0 min 0,000 mm 0,7 UV-I 127 W/m 11,5 C 15,9 C 11,3 km/h (2 Bft)
07.10.2015 11:00 15,8 C 75 % 1010,3 hPa 0,0 l/m 5,8 km/h (2 Bft) SW 229 0 min 0,000 mm 1,0 UV-I 213 W/m 11,4 C 15,8 C 12,9 km/h (3 Bft)
07.10.2015 11:05 15,9 C 75 % 1010,4 hPa 0,0 l/m 6,0 km/h (2 Bft) W-NW 287 0 min 0,102 mm 1,3 UV-I 252 W/m 11,5 C 15,9 C 12,9 km/h (3 Bft)
07.10.2015 11:10 15,9 C 75 % 1010,4 hPa 0,0 l/m 5,7 km/h (1 Bft) SW 218 0 min 0,000 mm 1,3 UV-I 198 W/m 11,5 C 15,9 C 16,1 km/h (3 Bft)
07.10.2015 11:15 15,9 C 75 % 1010,4 hPa 0,0 l/m 5,7 km/h (1 Bft) W-SW 248 0 min 0,000 mm 1,3 UV-I 219 W/m 11,5 C 15,9 C 11,3 km/h (2 Bft)
07.10.2015 11:20 15,9 C 75 % 1010,4 hPa 0,0 l/m 5,9 km/h (2 Bft) NW 313 0 min 0,000 mm 1,7 UV-I 247 W/m 11,5 C 15,9 C 12,9 km/h (3 Bft)
07.10.2015 11:25 16,1 C 76 % 1010,5 hPa 0,0 l/m 6,7 km/h (2 Bft) W-NW 288 5 min 0,000 mm 1,9 UV-I 414 W/m 11,9 C 16,0 C 14,5 km/h (3 Bft)
07.10.2015 11:30 16,1 C 75 % 1010,5 hPa 0,0 l/m 6,6 km/h (2 Bft) W 272 0 min 0,000 mm 1,5 UV-I 234 W/m 11,7 C 16,0 C 16,1 km/h (3 Bft)
07.10.2015 11:35 16,3 C 76 % 1010,6 hPa 0,0 l/m 6,9 km/h (2 Bft) SW 231 0 min 0,000 mm 1,2 UV-I 201 W/m 12,1 C 16,0 C 12,9 km/h (3 Bft)
07.10.2015 11:40 16,3 C 75 % 1010,6 hPa 0,0 l/m 9,6 km/h (2 Bft) W-NW 292 0 min 0,000 mm 1,2 UV-I 189 W/m 11,9 C 14,7 C 19,3 km/h (3 Bft)
07.10.2015 11:45 16,2 C 75 % 1010,6 hPa 0,0 l/m 10,0 km/h (2 Bft) W-SW 254 0 min 0,000 mm 1,5 UV-I 230 W/m 11,8 C 14,4 C 17,7 km/h (3 Bft)
07.10.2015 11:50 16,3 C 75 % 1010,6 hPa 0,0 l/m 8,2 km/h (2 Bft) W 265 0 min 0,000 mm 1,5 UV-I 208 W/m 11,9 C 15,4 C 17,7 km/h (3 Bft)
07.10.2015 11:55 16,4 C 75 % 1010,6 hPa 0,0 l/m 7,7 km/h (2 Bft) W-SW 257 5 min 0,000 mm 1,8 UV-I 293 W/m 12,0 C 15,7 C 17,7 km/h (3 Bft)
07.10.2015 12:00 16,8 C 75 % 1010,7 hPa 0,0 l/m 7,6 km/h (2 Bft) W 271 5 min 0,000 mm 2,1 UV-I 775 W/m 12,3 C 16,2 C 14,5 km/h (3 Bft)
07.10.2015 12:05 17,1 C 75 % 1010,7 hPa 0,0 l/m 6,2 km/h (2 Bft) SW 229 5 min 0,178 mm 1,3 UV-I 374 W/m 12,6 C 17,1 C 11,3 km/h (2 Bft)
07.10.2015 12:10 17,1 C 74 % 1010,7 hPa 0,0 l/m 7,2 km/h (2 Bft) SW 215 0 min 0,000 mm 1,3 UV-I 268 W/m 12,4 C 16,7 C 14,5 km/h (3 Bft)
07.10.2015 12:15 17,0 C 74 % 1010,9 hPa 0,0 l/m 6,4 km/h (2 Bft) W 275 0 min 0,000 mm 1,7 UV-I 293 W/m 12,3 C 17,0 C 14,5 km/h (3 Bft)
07.10.2015 12:20 17,0 C 75 % 1010,9 hPa 0,0 l/m 6,1 km/h (2 Bft) W 269 5 min 0,000 mm 2,1 UV-I 316 W/m 12,5 C 17,0 C 14,5 km/h (3 Bft)
07.10.2015 12:25 17,4 C 75 % 1010,9 hPa 0,0 l/m 2,2 km/h (1 Bft) W 275 5 min 0,000 mm 2,8 UV-I 604 W/m 12,9 C 17,4 C 9,7 km/h (2 Bft)
07.10.2015 12:30 17,5 C 73 % 1010,9 hPa 0,0 l/m 4,5 km/h (1 Bft) W-SW 247 5 min 0,000 mm 2,4 UV-I 547 W/m 12,6 C 17,5 C 12,9 km/h (3 Bft)
07.10.2015 12:35 17,2 C 74 % 1011,0 hPa 0,0 l/m 5,9 km/h (2 Bft) W 263 0 min 0,000 mm 1,9 UV-I 284 W/m 12,5 C 17,2 C 16,1 km/h (3 Bft)
07.10.2015 12:40 17,2 C 75 % 1011,0 hPa 0,0 l/m 6,3 km/h (2 Bft) SW 219 0 min 0,000 mm 2,0 UV-I 283 W/m 12,7 C 17,2 C 14,5 km/h (3 Bft)
07.10.2015 12:45 17,4 C 74 % 1011,0 hPa 0,0 l/m 6,2 km/h (2 Bft) S 179 5 min 0,000 mm 2,6 UV-I 701 W/m 12,7 C 17,4 C 16,1 km/h (3 Bft)
07.10.2015 12:50 17,5 C 74 % 1011,0 hPa 0,0 l/m 5,8 km/h (2 Bft) S-SW 205 5 min 0,000 mm 2,0 UV-I 348 W/m 12,8 C 17,5 C 16,1 km/h (3 Bft)
07.10.2015 12:55 17,2 C 74 % 1011,1 hPa 0,0 l/m 4,3 km/h (1 Bft) W-SW 248 0 min 0,000 mm 1,9 UV-I 298 W/m 12,5 C 17,2 C 14,5 km/h (3 Bft)
07.10.2015 13:00 16,9 C 75 % 1011,2 hPa 0,0 l/m 7,2 km/h (2 Bft) S-SW 213 0 min 0,228 mm 1,6 UV-I 241 W/m 12,4 C 16,5 C 14,5 km/h (3 Bft)
07.10.2015 13:05 16,6 C 75 % 1011,3 hPa 0,0 l/m 4,7 km/h (1 Bft) W 277 0 min 0,000 mm 1,2 UV-I 177 W/m 12,1 C 16,6 C 12,9 km/h (3 Bft)
07.10.2015 13:10 16,3 C 75 % 1011,3 hPa 0,0 l/m 4,7 km/h (1 Bft) W-SW 248 0 min 0,000 mm 1,2 UV-I 180 W/m 11,9 C 16,3 C 16,1 km/h (3 Bft)
07.10.2015 13:15 16,2 C 75 % 1011,3 hPa 0,0 l/m 3,9 km/h (1 Bft) S-SW 211 0 min 0,000 mm 1,4 UV-I 231 W/m 11,8 C 16,2 C 11,3 km/h (2 Bft)
07.10.2015 13:20 16,2 C 75 % 1011,4 hPa 0,0 l/m 5,5 km/h (1 Bft) W 260 0 min 0,000 mm 1,3 UV-I 244 W/m 11,8 C 16,2 C 14,5 km/h (3 Bft)
07.10.2015 13:25 16,2 C 75 % 1011,4 hPa 0,0 l/m 6,1 km/h (2 Bft) W-SW 244 5 min 0,000 mm 2,1 UV-I 387 W/m 11,8 C 16,2 C 12,9 km/h (3 Bft)
07.10.2015 13:30 16,7 C 75 % 1011,4 hPa 0,0 l/m 6,0 km/h (2 Bft) W-SW 253 5 min 0,000 mm 2,9 UV-I 663 W/m 12,2 C 16,7 C 16,1 km/h (3 Bft)
07.10.2015 13:35 16,7 C 74 % 1011,4 hPa 0,0 l/m 7,3 km/h (2 Bft) W 274 5 min 0,000 mm 2,3 UV-I 479 W/m 12,0 C 16,2 C 17,7 km/h (3 Bft)
07.10.2015 13:40 17,2 C 73 % 1011,4 hPa 0,0 l/m 4,2 km/h (1 Bft) SW 219 5 min 0,000 mm 2,5 UV-I 519 W/m 12,3 C 17,2 C 14,5 km/h (3 Bft)
07.10.2015 13:45 17,2 C 72 % 1011,6 hPa 0,0 l/m 6,2 km/h (2 Bft) W 273 0 min 0,000 mm 1,9 UV-I 255 W/m 12,1 C 17,2 C 12,9 km/h (3 Bft)
07.10.2015 13:50 16,9 C 72 % 1011,6 hPa 0,0 l/m 6,8 km/h (2 Bft) S-SW 211 0 min 0,000 mm 1,4 UV-I 228 W/m 11,8 C 16,7 C 17,7 km/h (3 Bft)
07.10.2015 13:55 16,7 C 73 % 1011,6 hPa 0,0 l/m 8,7 km/h (2 Bft) W 269 0 min 0,000 mm 1,5 UV-I 284 W/m 11,8 C 15,6 C 20,9 km/h (4 Bft)
07.10.2015 14:00 16,7 C 73 % 1011,7 hPa 0,0 l/m 9,5 km/h (2 Bft) W-NW 284 0 min 0,000 mm 1,7 UV-I 262 W/m 11,8 C 15,2 C 19,3 km/h (3 Bft)
07.10.2015 14:05 16,5 C 73 % 1011,8 hPa 0,0 l/m 7,8 km/h (2 Bft) W 270 0 min 0,203 mm 0,9 UV-I 143 W/m 11,6 C 15,8 C 17,7 km/h (3 Bft)
07.10.2015 14:10 16,3 C 74 % 1011,8 hPa 0,0 l/m 6,9 km/h (2 Bft) S 183 0 min 0,000 mm 1,0 UV-I 158 W/m 11,7 C 16,0 C 24,1 km/h (4 Bft)
07.10.2015 14:15 16,2 C 74 % 1011,8 hPa 0,0 l/m 6,2 km/h (2 Bft) S-SW 207 0 min 0,000 mm 1,3 UV-I 218 W/m 11,6 C 16,2 C 17,7 km/h (3 Bft)
07.10.2015 14:20 16,2 C 74 % 1011,8 hPa 0,0 l/m 5,0 km/h (1 Bft) S 190 0 min 0,000 mm 1,6 UV-I 247 W/m 11,6 C 16,2 C 14,5 km/h (3 Bft)
07.10.2015 14:25 16,2 C 74 % 1011,9 hPa 0,0 l/m 4,6 km/h (1 Bft) W-SW 246 0 min 0,000 mm 1,5 UV-I 225 W/m 11,6 C 16,2 C 14,5 km/h (3 Bft)
07.10.2015 14:30 16,1 C 74 % 1011,9 hPa 0,0 l/m 5,8 km/h (2 Bft) SW 215 0 min 0,000 mm 1,5 UV-I 236 W/m 11,5 C 16,1 C 12,9 km/h (3 Bft)
07.10.2015 14:35 16,0 C 74 % 1011,9 hPa 0,0 l/m 6,2 km/h (2 Bft) SW 223 0 min 0,000 mm 1,3 UV-I 197 W/m 11,4 C 16,0 C 16,1 km/h (3 Bft)
07.10.2015 14:40 15,9 C 75 % 1012,0 hPa 0,0 l/m 4,4 km/h (1 Bft) W-NW 294 0 min 0,000 mm 1,0 UV-I 148 W/m 11,5 C 15,9 C 14,5 km/h (3 Bft)
07.10.2015 14:45 15,9 C 74 % 1011,9 hPa 0,0 l/m 3,5 km/h (1 Bft) S-SW 213 0 min 0,000 mm 0,8 UV-I 122 W/m 11,3 C 15,9 C 11,3 km/h (2 Bft)
07.10.2015 14:50 15,9 C 75 % 1012,0 hPa 0,0 l/m 3,3 km/h (1 Bft) W 265 0 min 0,000 mm 1,0 UV-I 152 W/m 11,5 C 15,9 C 11,3 km/h (2 Bft)
07.10.2015 14:55 15,9 C 75 % 1012,0 hPa 0,0 l/m 3,5 km/h (1 Bft) S-SW 206 0 min 0,000 mm 0,9 UV-I 134 W/m 11,5 C 15,9 C 11,3 km/h (2 Bft)
07.10.2015 15:00 15,8 C 74 % 1012,0 hPa 0,0 l/m 3,4 km/h (1 Bft) W-NW 286 0 min 0,000 mm 0,6 UV-I 92 W/m 11,2 C 15,8 C 12,9 km/h (3 Bft)
07.10.2015 15:05 15,7 C 75 % 1012,1 hPa 0,0 l/m 4,7 km/h (1 Bft) S-SW 209 0 min 0,102 mm 0,8 UV-I 136 W/m 11,3 C 15,7 C 12,9 km/h (3 Bft)
07.10.2015 15:10 15,7 C 75 % 1012,1 hPa 0,0 l/m 1,4 km/h (1 Bft) W-SW 254 0 min 0,000 mm 1,1 UV-I 196 W/m 11,3 C 15,7 C 9,7 km/h (2 Bft)
07.10.2015 15:15 15,8 C 75 % 1012,1 hPa 0,0 l/m 1,4 km/h (1 Bft) W-SW 246 0 min 0,000 mm 1,0 UV-I 168 W/m 11,4 C 15,8 C 9,7 km/h (2 Bft)
07.10.2015 15:20 15,8 C 74 % 1012,2 hPa 0,0 l/m 2,3 km/h (1 Bft) W 273 0 min 0,000 mm 0,7 UV-I 112 W/m 11,2 C 15,8 C 9,7 km/h (2 Bft)
07.10.2015 15:25 15,8 C 75 % 1012,1 hPa 0,0 l/m 0,6 km/h (0 Bft) SW 231 0 min 0,000 mm 0,5 UV-I 89 W/m 11,4 C 15,8 C 6,4 km/h (2 Bft)
07.10.2015 15:30 15,9 C 74 % 1012,2 hPa 0,0 l/m 0,6 km/h (0 Bft) SW 236 0 min 0,000 mm 0,8 UV-I 152 W/m 11,3 C 15,9 C 9,7 km/h (2 Bft)
07.10.2015 15:35 15,9 C 74 % 1012,3 hPa 0,0 l/m 2,5 km/h (1 Bft) S 190 0 min 0,000 mm 1,2 UV-I 236 W/m 11,3 C 15,9 C 8,0 km/h (2 Bft)
07.10.2015 15:40 16,0 C 74 % 1012,2 hPa 0,0 l/m 2,3 km/h (1 Bft) W-SW 255 0 min 0,000 mm 1,1 UV-I 207 W/m 11,4 C 16,0 C 9,7 km/h (2 Bft)
07.10.2015 15:45 16,0 C 74 % 1012,3 hPa 0,0 l/m 3,3 km/h (1 Bft) S-SW 196 0 min 0,000 mm 0,9 UV-I 157 W/m 11,4 C 16,0 C 11,3 km/h (2 Bft)
07.10.2015 15:50 16,1 C 74 % 1012,2 hPa 0,0 l/m 3,2 km/h (1 Bft) SW 223 0 min 0,000 mm 0,8 UV-I 156 W/m 11,5 C 16,1 C 11,3 km/h (2 Bft)
07.10.2015 15:55 16,2 C 74 % 1012,3 hPa 0,0 l/m 1,6 km/h (1 Bft) S-SW 211 0 min 0,000 mm 0,9 UV-I 171 W/m 11,6 C 16,2 C 9,7 km/h (2 Bft)
07.10.2015 16:00 16,3 C 74 % 1012,3 hPa 0,0 l/m 4,1 km/h (1 Bft) SW 214 0 min 0,000 mm 0,9 UV-I 165 W/m 11,7 C 16,3 C 14,5 km/h (3 Bft)
07.10.2015 16:05 16,3 C 74 % 1012,3 hPa 0,0 l/m 4,2 km/h (1 Bft) SW 229 0 min 0,102 mm 0,9 UV-I 153 W/m 11,7 C 16,3 C 12,9 km/h (3 Bft)
07.10.2015 16:10 16,2 C 74 % 1012,4 hPa 0,0 l/m 3,1 km/h (1 Bft) W 271 0 min 0,000 mm 1,0 UV-I 177 W/m 11,6 C 16,2 C 12,9 km/h (3 Bft)
07.10.2015 16:15 16,2 C 74 % 1012,4 hPa 0,0 l/m 1,8 km/h (1 Bft) S-SW 199 0 min 0,000 mm 0,8 UV-I 153 W/m 11,6 C 16,2 C 12,9 km/h (3 Bft)
07.10.2015 16:20 16,2 C 74 % 1012,4 hPa 0,0 l/m 0,3 km/h (0 Bft) SW 229 0 min 0,000 mm 0,7 UV-I 142 W/m 11,6 C 16,2 C 4,8 km/h (1 Bft)
07.10.2015 16:25 16,3 C 74 % 1012,5 hPa 0,0 l/m 0,5 km/h (0 Bft) S 188 0 min 0,000 mm 0,7 UV-I 150 W/m 11,7 C 16,3 C 4,8 km/h (1 Bft)
07.10.2015 16:30 16,3 C 74 % 1012,5 hPa 0,0 l/m 1,9 km/h (1 Bft) W-NW 294 0 min 0,000 mm 0,7 UV-I 135 W/m 11,7 C 16,3 C 8,0 km/h (2 Bft)
07.10.2015 16:35 16,1 C 74 % 1012,5 hPa 0,0 l/m 3,4 km/h (1 Bft) W-SW 248 0 min 0,000 mm 0,7 UV-I 133 W/m 11,5 C 16,1 C 11,3 km/h (2 Bft)
07.10.2015 16:40 16,0 C 74 % 1012,5 hPa 0,0 l/m 1,7 km/h (1 Bft) S-SW 195 0 min 0,000 mm 0,6 UV-I 129 W/m 11,4 C 16,0 C 12,9 km/h (3 Bft)
07.10.2015 16:45 16,0 C 74 % 1012,6 hPa 0,0 l/m 0,0 km/h (0 Bft) W-NW 290 0 min 0,000 mm 0,5 UV-I 110 W/m 11,4 C 16,0 C 0,0 km/h (0 Bft)
07.10.2015 16:50 15,9 C 74 % 1012,6 hPa 0,2 l/m 1,4 km/h (1 Bft) W-SW 242 0 min 0,000 mm 0,5 UV-I 95 W/m 11,3 C 15,9 C 8,0 km/h (2 Bft)
07.10.2015 16:55 15,8 C 75 % 1012,7 hPa 0,0 l/m 2,4 km/h (1 Bft) S-SW 203 0 min 0,000 mm 0,1 UV-I 83 W/m 11,4 C 15,8 C 11,3 km/h (2 Bft)
07.10.2015 17:00 15,8 C 75 % 1012,7 hPa 0,0 l/m 1,1 km/h (1 Bft) SW 226 0 min 0,000 mm 0,0 UV-I 70 W/m 11,4 C 15,8 C 8,0 km/h (2 Bft)
07.10.2015 17:05 15,8 C 75 % 1012,7 hPa 0,0 l/m 0,4 km/h (0 Bft) W-NW 294 0 min 0,076 mm 0,0 UV-I 62 W/m 11,4 C 15,8 C 6,4 km/h (2 Bft)
07.10.2015 17:10 15,8 C 75 % 1012,7 hPa 0,0 l/m 0,0 km/h (0 Bft) W-SW 246 0 min 0,000 mm 0,0 UV-I 53 W/m 11,4 C 15,8 C 1,6 km/h (1 Bft)
07.10.2015 17:15 15,8 C 75 % 1012,7 hPa 0,0 l/m 0,0 km/h (0 Bft) W-SW 247 0 min 0,000 mm 0,0 UV-I 45 W/m 11,4 C 15,8 C 4,8 km/h (1 Bft)
07.10.2015 17:20 15,7 C 75 % 1012,8 hPa 0,0 l/m 2,9 km/h (1 Bft) S 190 0 min 0,000 mm 0,0 UV-I 39 W/m 11,3 C 15,7 C 11,3 km/h (2 Bft)
07.10.2015 17:25 15,7 C 75 % 1012,8 hPa 0,0 l/m 0,5 km/h (0 Bft) S-SW 202 0 min 0,000 mm 0,0 UV-I 37 W/m 11,3 C 15,7 C 6,4 km/h (2 Bft)
07.10.2015 17:30 15,6 C 75 % 1012,8 hPa 0,0 l/m 1,7 km/h (1 Bft) W 259 0 min 0,000 mm 0,0 UV-I 33 W/m 11,2 C 15,6 C 9,7 km/h (2 Bft)
07.10.2015 17:35 15,6 C 75 % 1012,9 hPa 0,0 l/m 1,3 km/h (1 Bft) SW 222 0 min 0,000 mm 0,0 UV-I 29 W/m 11,2 C 15,6 C 9,7 km/h (2 Bft)
07.10.2015 17:40 15,5 C 75 % 1012,9 hPa 0,0 l/m 0,0 km/h (0 Bft) W-SW 258 0 min 0,000 mm 0,0 UV-I 26 W/m 11,1 C 15,5 C 3,2 km/h (1 Bft)
07.10.2015 17:45 15,4 C 75 % 1013,0 hPa 0,0 l/m 3,6 km/h (1 Bft) SW 217 0 min 0,000 mm 0,0 UV-I 25 W/m 11,0 C 15,4 C 11,3 km/h (2 Bft)
07.10.2015 17:50 15,3 C 75 % 1013,0 hPa 0,0 l/m 1,7 km/h (1 Bft) W-SW 257 0 min 0,000 mm 0,0 UV-I 27 W/m 10,9 C 15,3 C 9,7 km/h (2 Bft)
07.10.2015 17:55 15,3 C 75 % 1013,0 hPa 0,0 l/m 1,3 km/h (1 Bft) W 269 0 min 0,000 mm 0,0 UV-I 28 W/m 10,9 C 15,3 C 8,0 km/h (2 Bft)
07.10.2015 18:00 15,3 C 75 % 1013,0 hPa 0,0 l/m 0,3 km/h (0 Bft) W-NW 292 0 min 0,025 mm 0,0 UV-I 23 W/m 10,9 C 15,3 C 4,8 km/h (1 Bft)
07.10.2015 18:05 15,2 C 75 % 1013,2 hPa 0,0 l/m 0,4 km/h (0 Bft) W-SW 256 0 min 0,000 mm 0,0 UV-I 21 W/m 10,8 C 15,2 C 6,4 km/h (2 Bft)
07.10.2015 18:10 15,2 C 75 % 1013,2 hPa 0,0 l/m 0,0 km/h (0 Bft) SW 217 0 min 0,000 mm 0,0 UV-I 15 W/m 10,8 C 15,2 C 1,6 km/h (1 Bft)
07.10.2015 18:15 15,2 C 75 % 1013,3 hPa 0,0 l/m 0,0 km/h (0 Bft) S 182 0 min 0,000 mm 0,0 UV-I 17 W/m 10,8 C 15,2 C 1,6 km/h (1 Bft)
07.10.2015 18:20 15,2 C 75 % 1013,3 hPa 0,0 l/m 0,0 km/h (0 Bft) S 184 0 min 0,000 mm 0,0 UV-I 14 W/m 10,8 C 15,2 C 0,0 km/h (0 Bft)
07.10.2015 18:25 15,2 C 75 % 1013,3 hPa 0,0 l/m 0,3 km/h (0 Bft) W-SW 257 0 min 0,000 mm 0,0 UV-I 10 W/m 10,8 C 15,2 C 6,4 km/h (2 Bft)
07.10.2015 18:30 15,1 C 75 % 1013,3 hPa 0,0 l/m 0,1 km/h (0 Bft) SW 221 0 min 0,000 mm 0,0 UV-I 9 W/m 10,7 C 15,1 C 3,2 km/h (1 Bft)
07.10.2015 18:35 15,1 C 75 % 1013,4 hPa 0,0 l/m 0,0 km/h (0 Bft) SW 214 0 min 0,000 mm 0,0 UV-I 6 W/m 10,7 C 15,1 C 0,0 km/h (0 Bft)
07.10.2015 18:40 15,0 C 75 % 1013,5 hPa 0,0 l/m 0,0 km/h (0 Bft) S 177 0 min 0,000 mm 0,0 UV-I 4 W/m 10,6 C 15,0 C 0,0 km/h (0 Bft)
07.10.2015 18:45 14,9 C 75 % 1013,5 hPa 0,0 l/m 0,0 km/h (0 Bft) S 177 0 min 0,000 mm 0,0 UV-I 0 W/m 10,5 C 14,9 C 0,0 km/h (0 Bft)
07.10.2015 18:50 14,8 C 75 % 1013,5 hPa 0,0 l/m 0,0 km/h (0 Bft) S 191 0 min 0,000 mm 0,0 UV-I 0 W/m 10,4 C 14,8 C 0,0 km/h (0 Bft)
07.10.2015 18:55 14,7 C 75 % 1013,6 hPa 0,0 l/m 0,0 km/h (0 Bft) S-SW 194 0 min 0,000 mm 0,0 UV-I 0 W/m 10,3 C 14,7 C 0,0 km/h (0 Bft)
07.10.2015 19:00 14,7 C 75 % 1013,6 hPa 0,0 l/m 0,0 km/h (0 Bft) W 265 0 min 0,000 mm 0,0 UV-I 0 W/m 10,3 C 14,7 C 0,0 km/h (0 Bft)
07.10.2015 19:05 14,7 C 75 % 1013,7 hPa 0,0 l/m 0,0 km/h (0 Bft) W 265 0 min 0,000 mm 0,0 UV-I 0 W/m 10,3 C 14,7 C 0,0 km/h (0 Bft)
07.10.2015 19:10 14,6 C 75 % 1013,8 hPa 0,0 l/m 0,0 km/h (0 Bft) W 265 0 min 0,000 mm 0,0 UV-I 0 W/m 10,2 C 14,6 C 0,0 km/h (0 Bft)
07.10.2015 19:15 14,6 C 75 % 1013,9 hPa 0,0 l/m 0,0 km/h (0 Bft) W 265 0 min 0,000 mm 0,0 UV-I 0 W/m 10,2 C 14,6 C 0,0 km/h (0 Bft)
07.10.2015 19:20 14,6 C 75 % 1014,0 hPa 0,0 l/m 0,0 km/h (0 Bft) W 265 0 min 0,000 mm 0,0 UV-I 0 W/m 10,2 C 14,6 C 0,0 km/h (0 Bft)
07.10.2015 19:25 14,5 C 75 % 1014,1 hPa 0,0 l/m 0,0 km/h (0 Bft) W 265 0 min 0,000 mm 0,0 UV-I 0 W/m 10,1 C 14,5 C 0,0 km/h (0 Bft)
07.10.2015 19:30 14,5 C 75 % 1014,2 hPa 0,0 l/m 0,0 km/h (0 Bft) W 265 0 min 0,000 mm 0,0 UV-I 0 W/m 10,1 C 14,5 C 1,6 km/h (1 Bft)
07.10.2015 19:35 14,4 C 75 % 1014,2 hPa 0,0 l/m 0,0 km/h (0 Bft) W 265 0 min 0,000 mm 0,0 UV-I 0 W/m 10,0 C 14,4 C 0,0 km/h (0 Bft)
07.10.2015 19:40 14,4 C 75 % 1014,3 hPa 0,0 l/m 0,0 km/h (0 Bft) W 265 0 min 0,000 mm 0,0 UV-I 0 W/m 10,0 C 14,4 C 0,0 km/h (0 Bft)
07.10.2015 19:45 14,3 C 75 % 1014,4 hPa 0,0 l/m 0,0 km/h (0 Bft) W 265 0 min 0,000 mm 0,0 UV-I 0 W/m 9,9 C 14,3 C 0,0 km/h (0 Bft)
07.10.2015 19:50 14,3 C 75 % 1014,4 hPa 0,0 l/m 0,5 km/h (0 Bft) W-SW 252 0 min 0,000 mm 0,0 UV-I 0 W/m 9,9 C 14,3 C 6,4 km/h (2 Bft)
07.10.2015 19:55 14,3 C 75 % 1014,5 hPa 0,0 l/m 0,0 km/h (0 Bft) W-SW 252 0 min 0,000 mm 0,0 UV-I 0 W/m 9,9 C 14,3 C 1,6 km/h (1 Bft)
07.10.2015 20:00 14,2 C 75 % 1014,5 hPa 0,0 l/m 0,1 km/h (0 Bft) W-SW 248 0 min 0,026 mm 0,0 UV-I 0 W/m 9,8 C 14,2 C 3,2 km/h (1 Bft)
07.10.2015 20:05 14,2 C 75 % 1014,6 hPa 0,0 l/m 0,1 km/h (0 Bft) W-SW 257 0 min 0,000 mm 0,0 UV-I 0 W/m 9,8 C 14,2 C 3,2 km/h (1 Bft)
07.10.2015 20:10 14,2 C 75 % 1014,7 hPa 0,0 l/m 0,0 km/h (0 Bft) W-SW 256 0 min 0,000 mm 0,0 UV-I 0 W/m 9,8 C 14,2 C 0,0 km/h (0 Bft)
07.10.2015 20:15 14,1 C 75 % 1014,7 hPa 0,0 l/m 0,0 km/h (0 Bft) W-SW 256 0 min 0,000 mm 0,0 UV-I 0 W/m 9,7 C 14,1 C 0,0 km/h (0 Bft)
07.10.2015 20:20 14,1 C 75 % 1014,7 hPa 0,0 l/m 0,0 km/h (0 Bft) W-SW 256 0 min 0,000 mm 0,0 UV-I 0 W/m 9,7 C 14,1 C 0,0 km/h (0 Bft)
07.10.2015 20:25 14,0 C 75 % 1014,8 hPa 0,0 l/m 0,0 km/h (0 Bft) W-SW 258 0 min 0,000 mm 0,0 UV-I 0 W/m 9,6 C 14,0 C 1,6 km/h (1 Bft)
07.10.2015 20:30 14,0 C 75 % 1014,8 hPa 0,0 l/m 0,0 km/h (0 Bft) W-SW 258 0 min 0,000 mm 0,0 UV-I 0 W/m 9,6 C 14,0 C 0,0 km/h (0 Bft)
07.10.2015 20:35 13,9 C 75 % 1014,8 hPa 0,0 l/m 0,0 km/h (0 Bft) W-SW 258 0 min 0,000 mm 0,0 UV-I 0 W/m 9,5 C 13,9 C 0,0 km/h (0 Bft)
07.10.2015 20:40 13,9 C 75 % 1014,8 hPa 0,0 l/m 0,0 km/h (0 Bft) W-SW 258 0 min 0,000 mm 0,0 UV-I 0 W/m 9,5 C 13,9 C 0,0 km/h (0 Bft)
07.10.2015 20:45 13,8 C 75 % 1014,9 hPa 0,0 l/m 0,0 km/h (0 Bft) W-SW 258 0 min 0,000 mm 0,0 UV-I 0 W/m 9,4 C 13,8 C 0,0 km/h (0 Bft)
07.10.2015 20:50 13,7 C 75 % 1015,0 hPa 0,0 l/m 0,0 km/h (0 Bft) W 279 0 min 0,000 mm 0,0 UV-I 0 W/m 9,3 C 13,7 C 0,0 km/h (0 Bft)
07.10.2015 20:55 13,7 C 75 % 1015,0 hPa 0,0 l/m 0,0 km/h (0 Bft) W 278 0 min 0,000 mm 0,0 UV-I 0 W/m 9,3 C 13,7 C 0,0 km/h (0 Bft)
07.10.2015 21:00 13,7 C 75 % 1015,0 hPa 0,0 l/m 0,0 km/h (0 Bft) W 278 0 min 0,025 mm 0,0 UV-I 0 W/m 9,3 C 13,7 C 0,0 km/h (0 Bft)
07.10.2015 21:05 13,7 C 75 % 1015,1 hPa 0,0 l/m 0,0 km/h (0 Bft) W 278 0 min 0,000 mm 0,0 UV-I 0 W/m 9,3 C 13,7 C 0,0 km/h (0 Bft)
07.10.2015 21:10 13,7 C 75 % 1015,2 hPa 0,0 l/m 0,0 km/h (0 Bft) W 278 0 min 0,000 mm 0,0 UV-I 0 W/m 9,3 C 13,7 C 0,0 km/h (0 Bft)
07.10.2015 21:15 13,6 C 75 % 1015,2 hPa 0,0 l/m 0,0 km/h (0 Bft) W-NW 286 0 min 0,000 mm 0,0 UV-I 0 W/m 9,3 C 13,6 C 1,6 km/h (1 Bft)
07.10.2015 21:20 13,6 C 75 % 1015,2 hPa 0,0 l/m 0,8 km/h (0 Bft) W-NW 288 0 min 0,000 mm 0,0 UV-I 0 W/m 9,3 C 13,6 C 8,0 km/h (2 Bft)
07.10.2015 21:25 13,5 C 75 % 1015,3 hPa 0,0 l/m 0,9 km/h (0 Bft) NW 304 0 min 0,000 mm 0,0 UV-I 0 W/m 9,2 C 13,5 C 6,4 km/h (2 Bft)
07.10.2015 21:30 13,5 C 75 % 1015,3 hPa 0,0 l/m 2,6 km/h (1 Bft) W 262 0 min 0,000 mm 0,0 UV-I 0 W/m 9,2 C 13,5 C 8,0 km/h (2 Bft)
07.10.2015 21:35 13,4 C 76 % 1015,4 hPa 0,0 l/m 1,6 km/h (1 Bft) W 275 0 min 0,000 mm 0,0 UV-I 0 W/m 9,3 C 13,4 C 8,0 km/h (2 Bft)
07.10.2015 21:40 13,3 C 76 % 1015,4 hPa 0,0 l/m 2,6 km/h (1 Bft) W-NW 296 0 min 0,000 mm 0,0 UV-I 0 W/m 9,2 C 13,3 C 9,7 km/h (2 Bft)
07.10.2015 21:45 13,3 C 76 % 1015,5 hPa 0,0 l/m 1,3 km/h (1 Bft) W 271 0 min 0,000 mm 0,0 UV-I 0 W/m 9,2 C 13,3 C 8,0 km/h (2 Bft)
07.10.2015 21:50 13,3 C 76 % 1015,5 hPa 0,0 l/m 1,1 km/h (1 Bft) W 274 0 min 0,000 mm 0,0 UV-I 0 W/m 9,2 C 13,3 C 8,0 km/h (2 Bft)
07.10.2015 21:55 13,2 C 76 % 1015,5 hPa 0,0 l/m 0,2 km/h (0 Bft) W 261 0 min 0,000 mm 0,0 UV-I 0 W/m 9,1 C 13,2 C 3,2 km/h (1 Bft)
07.10.2015 22:00 13,2 C 76 % 1015,5 hPa 0,0 l/m 1,1 km/h (1 Bft) W 278 0 min 0,025 mm 0,0 UV-I 0 W/m 9,1 C 13,2 C 8,0 km/h (2 Bft)
07.10.2015 22:05 13,2 C 76 % 1015,6 hPa 0,0 l/m 1,0 km/h (0 Bft) W-NW 298 0 min 0,000 mm 0,0 UV-I 0 W/m 9,1 C 13,2 C 8,0 km/h (2 Bft)
07.10.2015 22:10 13,1 C 76 % 1015,6 hPa 0,0 l/m 1,6 km/h (1 Bft) W 272 0 min 0,000 mm 0,0 UV-I 0 W/m 9,0 C 13,1 C 9,7 km/h (2 Bft)
07.10.2015 22:15 13,1 C 76 % 1015,6 hPa 0,0 l/m 3,1 km/h (1 Bft) W 270 0 min 0,000 mm 0,0 UV-I 0 W/m 9,0 C 13,1 C 9,7 km/h (2 Bft)
07.10.2015 22:20 13,1 C 76 % 1015,5 hPa 0,0 l/m 2,8 km/h (1 Bft) W 266 0 min 0,000 mm 0,0 UV-I 0 W/m 9,0 C 13,1 C 9,7 km/h (2 Bft)
07.10.2015 22:25 13,1 C 76 % 1015,6 hPa 0,0 l/m 2,7 km/h (1 Bft) W-NW 288 0 min 0,000 mm 0,0 UV-I 0 W/m 9,0 C 13,1 C 9,7 km/h (2 Bft)
07.10.2015 22:30 13,1 C 76 % 1015,5 hPa 0,0 l/m 4,2 km/h (1 Bft) SW 225 0 min 0,000 mm 0,0 UV-I 0 W/m 9,0 C 13,1 C 9,7 km/h (2 Bft)
07.10.2015 22:35 13,0 C 76 % 1015,5 hPa 0,0 l/m 3,6 km/h (1 Bft) W 277 0 min 0,000 mm 0,0 UV-I 0 W/m 8,9 C 13,0 C 9,7 km/h (2 Bft)
07.10.2015 22:40 13,0 C 76 % 1015,6 hPa 0,0 l/m 3,9 km/h (1 Bft) W 276 0 min 0,000 mm 0,0 UV-I 0 W/m 8,9 C 13,0 C 12,9 km/h (3 Bft)
07.10.2015 22:45 13,0 C 76 % 1015,6 hPa 0,0 l/m 3,5 km/h (1 Bft) W 273 0 min 0,000 mm 0,0 UV-I 0 W/m 8,9 C 13,0 C 11,3 km/h (2 Bft)
07.10.2015 22:50 13,0 C 76 % 1015,7 hPa 0,0 l/m 1,6 km/h (1 Bft) W-SW 256 0 min 0,000 mm 0,0 UV-I 0 W/m 8,9 C 13,0 C 9,7 km/h (2 Bft)
07.10.2015 22:55 13,0 C 76 % 1015,7 hPa 0,0 l/m 0,6 km/h (0 Bft) W 267 0 min 0,000 mm 0,0 UV-I 0 W/m 8,9 C 13,0 C 8,0 km/h (2 Bft)
07.10.2015 23:00 13,0 C 76 % 1015,8 hPa 0,0 l/m 0,1 km/h (0 Bft) SO 128 0 min 0,026 mm 0,0 UV-I 0 W/m 8,9 C 13,0 C 3,2 km/h (1 Bft)
07.10.2015 23:05 13,0 C 76 % 1015,9 hPa 0,0 l/m 0,0 km/h (0 Bft) SO 127 0 min 0,000 mm 0,0 UV-I 0 W/m 8,9 C 13,0 C 0,0 km/h (0 Bft)
07.10.2015 23:10 12,9 C 76 % 1015,9 hPa 0,0 l/m 0,0 km/h (0 Bft) O 82 0 min 0,000 mm 0,0 UV-I 0 W/m 8,8 C 12,9 C 0,0 km/h (0 Bft)
07.10.2015 23:15 12,9 C 76 % 1015,9 hPa 0,0 l/m 0,0 km/h (0 Bft) O 84 0 min 0,000 mm 0,0 UV-I 0 W/m 8,8 C 12,9 C 0,0 km/h (0 Bft)
07.10.2015 23:20 12,9 C 76 % 1015,9 hPa 0,0 l/m 0,0 km/h (0 Bft) O 84 0 min 0,000 mm 0,0 UV-I 0 W/m 8,8 C 12,9 C 0,0 km/h (0 Bft)
07.10.2015 23:25 12,9 C 76 % 1016,0 hPa 0,0 l/m 0,0 km/h (0 Bft) O 84 0 min 0,000 mm 0,0 UV-I 0 W/m 8,8 C 12,9 C 0,0 km/h (0 Bft)
07.10.2015 23:30 12,9 C 76 % 1016,0 hPa 0,0 l/m 0,0 km/h (0 Bft) O 84 0 min 0,000 mm 0,0 UV-I 0 W/m 8,8 C 12,9 C 0,0 km/h (0 Bft)
07.10.2015 23:35 12,9 C 76 % 1016,1 hPa 0,0 l/m 0,0 km/h (0 Bft) O 84 0 min 0,000 mm 0,0 UV-I 0 W/m 8,8 C 12,9 C 0,0 km/h (0 Bft)
07.10.2015 23:40 12,9 C 76 % 1016,1 hPa 0,0 l/m 0,0 km/h (0 Bft) W-NW 288 0 min 0,000 mm 0,0 UV-I 0 W/m 8,8 C 12,9 C 0,0 km/h (0 Bft)
07.10.2015 23:45 12,9 C 76 % 1016,1 hPa 0,0 l/m 0,0 km/h (0 Bft) W-NW 288 0 min 0,000 mm 0,0 UV-I 0 W/m 8,8 C 12,9 C 0,0 km/h (0 Bft)
07.10.2015 23:50 12,9 C 76 % 1016,1 hPa 0,0 l/m 0,0 km/h (0 Bft) W-NW 288 0 min 0,000 mm 0,0 UV-I 0 W/m 8,8 C 12,9 C 0,0 km/h (0 Bft)
07.10.2015 23:55 12,9 C 76 % 1016,1 hPa 0,0 l/m 0,5 km/h (0 Bft) W-NW 290 0 min 0,000 mm 0,0 UV-I 0 W/m 8,8 C 12,9 C 8,0 km/h (2 Bft)
_ Min-Zeit 22:55 13:45 00:00 - 00:00 - - - - - - 23:10 23:10 00:00
Minimum _ 12,9 C 72 % 1006,4 hPa - 0,0 km/h (0 Bft) - - - - - - 8,8 C 12,9 C 0,0 km/h (0 Bft)
_ Max-Zeit 12:30 01:55 23:35 16:50 11:45 - - 10:40 13:00 13:30 12:00 12:25 12:30 14:10
Maximum _ 17,6 C 79 % 1016,1 hPa 0,2 l/m 10,0 km/h
W-SW (2 Bft)
- - 5 min 0,228 mm 2,9 UV-I 775 W/m 12,9 C 17,5 C 24,1 km/h
W-SW (4 Bft)
Durchschnitt _ 14,7 C 76 % 1010,7 hPa #0,2 l/m 1,6 km/h (1 Bft) W - #1:10 h #1,321 mm 1,3 UV-I 159 W/m 10,6 C 14,7 C 5,1 km/h (1 Bft)